Date,TemperatureHighF,TemperatureAvgF,TemperatureLowF,DewpointHighF,DewpointAvgF,DewpointLowF,HumidityHigh,HumidityAvg,HumidityLow,PressureMaxIn,PressureMinIn,WindSpeedMaxMPH,WindSpeedAvgMPH,GustSpeedMaxMPH,PrecipitationSumIn
2013-2-4,66.6,58.0,54.9,59.0,51.9,-99.9,96,86,68,29.65,29.60,5,-22,0,0.05
2013-2-5,72.7,60.3,54.0,64.7,58.2,53.7,99,93,76,29.79,29.63,6,2,0,0.02
2013-2-6,66.2,58.4,51.1,62.5,57.5,50.8,99,97,86,29.87,29.68,7,2,0,1.09
2013-2-7,67.6,60.5,55.6,62.3,58.6,55.3,99,94,81,29.78,29.65,8,3,0,0.00
2013-2-8,64.2,57.7,47.5,58.9,55.2,46.4,99,91,80,29.99,29.78,12,5,0,0.00
2013-2-9,66.7,57.3,44.8,60.4,54.0,39.0,98,89,78,29.99,29.78,9,4,0,0.00
2013-2-10,76.6,66.5,61.3,70.7,64.9,59.6,99,95,81,29.81,29.65,20,6,0,0.58
2013-2-11,62.4,54.7,44.8,62.1,54.0,39.0,99,97,80,29.99,29.78,14,6,0,2.08
2013-2-12,66.7,56.8,52.9,66.4,56.3,52.3,99,98,92,29.87,29.57,14,5,0,0.13
2013-2-13,58.8,51.1,41.0,52.6,45.2,39.7,99,81,58,29.94,29.75,17,7,0,0.07
2013-2-14,62.2,47.3,34.2,44.8,40.5,33.9,99,81,43,30.02,29.91,9,2,0,0.00
2013-2-15,66.7,49.4,35.4,48.0,38.1,-99.9,99,73,39,30.06,29.93,17,-16,0,0.00
2013-2-16,56.3,45.2,34.0,36.4,30.2,23.9,97,59,32,30.03,29.89,18,7,0,0.00
2013-2-17,65.8,48.7,31.1,47.2,40.4,30.9,99,76,49,29.94,29.81,15,5,0,0.00
2013-2-18,69.1,60.4,48.4,63.8,56.2,45.0,97,87,69,29.82,29.60,19,8,0,0.79
2013-2-19,64.6,54.3,45.1,58.3,42.8,36.3,95,68,35,30.01,29.72,13,6,0,0.01
2013-2-20,60.8,51.8,42.6,41.0,36.7,31.6,81,57,41,29.97,29.72,9,4,0,0.00
2013-2-21,71.2,61.8,53.1,69.1,56.8,38.1,99,84,56,29.71,29.46,21,7,0,0.87
2013-2-22,63.7,58.4,53.6,62.1,53.5,49.5,99,84,68,29.80,29.67,10,5,0,0.00
2013-2-23,66.9,55.3,46.6,52.5,48.4,44.4,93,79,57,29.83,29.73,9,5,0,0.00
2013-2-24,70.0,56.0,40.8,58.5,49.4,40.6,99,81,54,29.85,29.58,8,3,0,0.00
2013-2-25,69.8,62.3,49.8,68.7,57.8,33.9,99,87,46,29.57,29.30,22,5,0,0.68
2013-2-26,62.4,51.5,41.7,43.5,38.7,33.4,95,63,43,29.87,29.54,21,8,0,0.00
2013-2-27,71.2,53.8,37.8,53.4,42.3,36.2,99,69,39,30.04,29.86,15,5,0,0.00
2013-2-28,55.2,44.9,38.3,40.8,34.7,31.3,91,69,41,30.16,30.02,11,5,0,0.00
2013-3-1,60.1,46.4,33.6,38.3,34.3,29.8,94,67,33,30.14,30.02,19,6,0,0.00
2013-3-2,50.7,40.5,31.3,34.6,30.6,26.1,96,70,41,30.20,30.09,17,7,0,0.00
2013-3-3,61.0,43.8,25.9,39.3,32.0,25.6,99,69,33,30.19,29.96,10,3,0,0.00
2013-3-4,72.1,59.4,38.7,60.0,53.2,38.1,99,81,62,29.96,29.75,25,9,0,0.00
2013-3-5,71.2,62.5,48.4,62.7,48.3,31.6,95,64,29,30.16,29.74,17,8,0,0.00
2013-3-6,66.0,48.6,33.1,38.9,31.1,23.9,96,56,21,30.27,30.11,11,4,0,0.00
2013-3-7,65.3,48.5,34.2,41.4,36.7,32.6,99,69,31,30.22,30.09,5,2,0,0.00
2013-3-8,72.1,54.9,37.6,55.3,46.6,37.3,99,76,46,30.15,29.97,7,2,0,0.00
2013-3-9,71.6,61.5,52.3,62.7,57.6,51.5,99,88,72,29.98,29.75,18,6,0,0.00
2013-3-10,73.0,61.7,53.1,66.1,59.5,52.5,99,93,77,29.82,29.68,19,6,0,1.97
2013-3-11,59.4,50.0,39.6,51.6,38.1,33.6,95,66,39,29.95,29.82,19,7,0,0.00
2013-3-12,70.0,50.2,32.9,46.4,38.4,32.7,99,71,27,30.12,29.93,10,2,0,0.00
2013-3-13,69.1,53.8,39.4,43.9,37.9,31.4,99,63,25,30.30,30.13,12,4,0,0.00
2013-3-14,70.9,53.4,36.1,46.0,39.4,34.0,99,66,29,30.29,30.14,9,3,0,0.00
2013-3-15,74.3,58.4,40.3,57.0,50.8,40.0,99,79,43,30.15,29.95,17,5,0,0.00
2013-3-16,75.7,63.2,48.2,60.6,56.2,47.9,99,81,51,29.93,29.75,18,6,0,0.00
2013-3-17,76.8,66.3,55.8,67.5,62.5,55.5,99,89,70,29.77,29.61,17,6,0,0.00
2013-3-18,83.3,72.7,66.6,70.1,67.3,62.5,99,84,63,29.78,29.60,13,6,0,0.00
2013-3-19,77.5,64.7,49.6,63.0,49.0,44.4,85,58,40,29.89,29.78,12,5,0,0.00
2013-3-20,73.0,59.7,45.7,50.6,43.5,36.5,94,59,28,30.07,29.84,18,6,0,0.19
2013-3-21,70.2,56.3,45.0,48.1,42.9,35.6,98,65,31,29.92,29.66,12,4,0,0.00
2013-3-22,79.3,67.3,57.6,71.2,63.2,48.1,99,87,68,29.69,29.55,10,5,0,0.04
2013-3-23,75.4,69.2,64.8,70.2,68.0,62.7,99,96,84,29.63,29.42,12,4,0,0.02
2013-3-24,64.0,58.3,44.1,62.0,46.8,32.3,98,69,35,29.95,29.47,25,10,0,0.00
2013-3-25,61.0,46.9,34.5,33.7,28.1,22.6,84,53,24,30.35,29.96,16,7,0,0.00
2013-3-26,59.2,45.1,31.1,35.4,27.5,23.3,92,54,28,30.32,30.18,14,5,0,0.00
2013-3-27,65.7,48.2,31.1,42.7,34.8,30.0,98,66,28,30.30,30.11,7,2,0,0.00
2013-3-28,71.6,55.1,38.1,52.3,45.3,37.1,99,74,31,30.22,30.08,8,2,0,0.00
2013-3-29,76.1,61.3,46.6,57.9,53.4,46.3,99,78,48,30.15,30.02,12,4,0,0.00
2013-3-30,77.0,63.9,53.4,63.2,58.4,53.1,99,84,52,30.05,29.86,15,5,0,0.00
2013-3-31,77.4,53.7,-40.0,75.4,51.2,-40.7,99,92,68,29.88,29.75,22,6,0,0.30
2013-4-6,70.7,61.8,58.3,56.3,49.3,-99.9,93,71,56,29.91,29.87,12,-33,0,0.00
2013-4-7,78.1,65.3,52.2,63.3,58.5,51.9,99,81,56,29.94,29.83,14,5,0,0.00
2013-4-8,79.7,70.5,62.6,66.9,64.4,60.4,99,83,56,29.88,29.81,17,7,0,0.00
2013-4-9,79.2,73.6,66.9,72.6,70.2,65.5,99,89,78,29.90,29.76,20,9,0,0.00
2013-4-10,81.5,75.8,72.1,73.2,71.5,70.0,98,87,74,29.86,29.76,19,11,0,0.05
2013-4-11,73.0,55.8,47.5,72.4,52.8,47.2,99,91,52,29.90,29.73,18,7,0,1.78
2013-4-12,80.4,59.5,43.2,56.2,48.7,42.9,99,74,30,30.05,29.90,8,2,0,0.00
2013-4-13,82.4,65.0,48.2,57.6,52.3,47.9,99,69,35,30.04,29.84,9,2,0,0.00
2013-4-14,77.2,64.2,55.4,67.2,60.8,52.3,99,90,66,29.86,29.74,9,4,0,0.25
2013-4-15,85.6,74.0,65.1,73.7,69.3,64.8,99,87,60,29.95,29.81,9,5,0,0.00
2013-4-16,83.1,76.5,73.4,76.2,73.9,73.1,99,92,78,30.06,29.93,11,6,0,0.01
2013-4-17,84.6,77.3,72.3,74.9,73.0,72.0,99,87,71,30.05,29.89,17,8,0,0.00
2013-4-18,82.9,71.6,51.3,73.7,67.7,49.6,99,88,73,30.03,29.74,21,11,0,0.62
2013-4-19,65.8,52.8,44.4,48.7,40.9,34.5,99,67,36,30.23,30.02,19,8,0,0.00
2013-4-20,75.0,55.8,39.2,51.5,44.1,38.9,99,71,36,30.28,30.11,7,2,0,0.00
2013-4-21,79.0,60.1,43.7,55.2,48.1,43.4,99,71,31,30.21,30.08,6,2,0,0.00
2013-4-22,82.8,64.2,47.8,61.2,53.3,47.6,99,73,38,30.11,29.94,8,2,0,0.00
2013-4-23,82.4,71.3,57.0,70.8,66.4,56.7,99,86,62,30.00,29.89,15,5,0,0.00
2013-4-24,71.4,61.0,51.8,71.1,58.2,49.6,99,91,68,30.20,29.87,26,8,0,2.44
2013-4-25,76.6,60.3,50.0,57.5,48.7,41.7,93,69,34,30.29,30.17,11,4,0,0.00
2013-4-26,77.7,66.0,53.6,69.5,61.1,51.0,99,85,73,30.20,30.08,11,3,0,0.00
2013-4-27,80.4,72.8,67.6,71.7,68.7,65.9,99,88,64,30.08,29.93,13,5,0,0.00
2013-4-28,79.2,69.9,61.2,70.0,67.1,60.9,99,92,67,29.97,29.84,9,3,0,0.07
2013-4-29,85.5,70.0,59.0,70.4,65.0,58.7,99,86,48,29.90,29.78,8,2,0,0.00
2013-4-30,81.0,69.1,62.1,73.2,67.4,61.8,99,95,73,29.81,29.73,6,1,0,0.14
2013-5-1,87.4,72.1,64.6,71.1,66.6,64.3,99,85,50,29.83,29.74,17,2,0,0.59
2013-5-2,75.2,67.5,57.2,68.1,65.0,56.9,99,92,75,29.97,29.82,16,6,0,0.02
2013-5-3,64.9,53.7,45.1,56.0,47.0,42.7,99,80,47,30.03,29.93,18,10,0,0.00
2013-5-4,76.1,58.3,38.8,55.9,45.6,38.6,99,69,30,29.99,29.77,13,5,0,0.00
2013-5-5,70.2,56.9,46.8,51.8,44.9,40.6,99,67,39,30.00,29.86,14,6,0,0.00
2013-5-6,78.6,61.2,44.4,58.7,51.1,44.2,99,74,41,30.01,29.87,13,3,0,0.00
2013-5-7,90.1,69.1,53.8,66.1,57.9,53.5,99,72,34,30.00,29.90,7,2,0,0.00
2013-5-8,81.7,69.4,56.5,68.5,62.0,56.2,99,80,52,30.04,29.94,11,3,0,0.00
2013-5-9,78.1,70.5,61.3,73.4,68.5,61.1,99,94,78,30.01,29.87,9,3,0,0.01
2013-5-10,77.7,68.8,63.7,72.2,66.4,62.6,99,93,64,29.97,29.72,19,5,0,3.36
2013-5-11,82.4,71.4,63.1,72.1,67.7,62.9,99,89,66,30.03,29.84,8,2,0,0.38
2013-5-12,80.1,68.6,56.8,65.4,60.7,54.9,99,78,52,30.12,30.00,12,4,0,0.00
2013-5-13,88.2,66.5,50.2,60.8,53.0,44.4,99,69,25,30.24,30.10,9,2,0,0.00
2013-5-14,83.5,68.9,52.9,66.0,56.9,50.6,99,71,34,30.20,30.07,10,3,0,0.00
2013-5-15,81.1,69.1,57.0,69.7,64.0,56.7,99,85,59,30.10,29.92,11,4,0,0.00
2013-5-16,83.1,72.7,64.4,70.8,67.5,62.4,99,85,56,29.93,29.81,15,6,0,0.00
2013-5-17,85.8,76.0,66.9,75.5,72.0,66.6,99,88,71,29.93,29.83,13,5,0,0.00
2013-5-18,87.4,78.8,72.1,74.8,73.1,71.4,99,84,61,29.96,29.87,11,6,0,0.00
2013-5-19,88.0,79.3,72.9,75.5,74.0,72.6,99,85,63,29.90,29.82,18,8,0,0.00
2013-5-20,88.5,80.7,75.7,77.5,75.1,73.7,97,84,63,29.90,29.78,16,8,0,0.00
2013-5-21,88.2,80.2,73.8,76.7,75.2,73.5,99,86,65,29.85,29.69,15,7,0,0.20
2013-5-22,85.5,74.8,67.6,78.2,72.7,67.3,99,93,75,29.88,29.71,16,4,0,2.95
2013-5-23,89.6,77.9,68.9,77.8,73.3,67.7,99,87,63,29.99,29.87,9,3,0,0.00
2013-5-24,90.5,78.7,66.4,78.0,72.4,66.1,99,83,59,30.09,29.97,5,1,0,0.00
2013-5-25,89.4,76.4,68.7,76.1,71.4,68.4,99,86,62,30.13,30.03,9,2,0,1.10
2013-5-26,88.2,77.4,70.3,74.8,72.0,70.0,99,85,56,30.08,29.99,9,2,0,0.00
2013-5-27,87.4,77.5,68.0,75.1,70.7,67.7,99,82,55,30.02,29.91,13,4,0,0.01
2013-5-28,88.2,77.9,70.2,74.2,70.8,67.1,99,81,51,29.96,29.87,14,5,0,0.00
2013-5-29,88.0,78.1,68.0,75.6,72.2,67.7,99,84,60,29.90,29.79,12,4,0,0.16
2013-5-30,87.4,79.3,71.1,77.7,74.6,70.8,99,87,66,29.88,29.79,15,5,0,0.18
2013-5-31,87.1,80.1,73.4,78.5,75.8,73.1,99,88,71,29.89,29.82,11,5,0,0.00
2013-6-1,90.3,81.6,75.6,78.9,76.7,75.3,99,86,68,29.87,29.78,10,6,0,0.00
2013-6-2,89.8,77.6,70.3,75.1,73.1,70.0,99,87,59,29.92,29.80,12,3,0,0.01
2013-6-3,91.4,79.8,70.2,75.6,72.7,69.9,99,81,52,29.87,29.76,9,4,0,0.00
2013-6-4,101.1,82.1,68.9,77.2,72.7,67.5,99,77,34,29.86,29.75,6,1,0,0.00
2013-6-5,100.4,84.7,74.3,79.5,76.4,74.0,99,79,47,29.84,29.69,6,2,0,0.00
2013-6-6,82.9,75.7,69.6,79.3,73.9,69.3,99,94,68,29.80,29.67,13,3,0,0.64
2013-6-7,91.2,75.7,67.8,73.5,69.9,67.5,99,84,49,29.84,29.75,8,4,0,0.00
2013-6-8,88.5,74.6,67.6,74.4,70.3,65.8,99,88,55,29.88,29.80,20,2,0,0.21
2013-6-9,90.7,75.9,68.2,79.5,72.4,67.9,99,90,59,29.88,29.81,11,2,0,0.02
2013-6-10,91.2,79.9,68.5,79.5,74.7,68.2,99,86,60,29.94,29.88,11,2,0,0.00
2013-6-11,96.4,82.8,72.5,80.4,76.3,72.2,99,83,56,30.01,29.92,7,2,0,0.00
2013-6-12,95.5,83.0,72.3,80.2,76.1,72.0,99,82,53,30.02,29.91,8,3,0,0.00
2013-6-13,98.4,84.0,72.1,81.3,76.3,71.8,99,81,50,30.00,29.83,9,3,0,0.00
2013-6-14,97.3,84.2,75.0,81.9,78.2,74.7,99,84,56,29.89,29.78,10,4,0,0.00
2013-6-15,98.6,83.8,71.1,79.5,75.2,70.0,97,77,50,29.93,29.84,9,2,0,0.00
2013-6-16,93.9,84.0,75.0,79.3,76.9,74.7,99,81,58,29.98,29.87,10,3,0,0.00
2013-6-17,92.8,81.6,71.2,80.3,75.7,55.5,99,84,32,29.95,29.83,10,4,0,0.01
2013-6-18,91.6,80.3,71.2,79.7,75.0,70.9,99,85,59,29.92,29.82,20,4,0,0.28
2013-6-19,86.9,76.8,71.8,78.3,74.0,71.5,99,92,70,29.96,29.87,9,2,0,0.65
2013-6-20,92.1,80.0,72.1,79.6,75.1,71.8,99,86,57,30.04,29.93,8,2,0,0.00
2013-6-21,100.0,81.7,72.1,80.5,75.2,71.8,99,83,48,30.04,29.96,9,2,0,0.15
2013-6-22,100.9,84.2,71.2,79.5,74.9,70.9,99,77,45,30.03,29.89,5,2,0,0.01
2013-6-23,99.1,82.4,71.1,78.9,75.0,70.8,99,81,50,29.99,29.91,12,2,0,0.00
2013-6-24,94.5,80.6,73.0,79.2,75.6,72.7,99,86,58,30.04,29.96,11,3,0,0.05
2013-6-25,96.6,82.2,71.1,79.0,75.2,70.8,99,82,45,30.00,29.90,10,3,0,0.00
2013-6-26,97.9,84.4,73.4,79.7,76.4,73.1,99,80,50,29.97,29.87,9,3,0,0.00
2013-6-27,102.0,84.8,70.5,82.4,75.8,70.2,99,78,44,29.95,29.85,8,3,0,0.00
2013-6-28,99.1,85.1,74.8,79.8,76.5,73.9,99,78,46,29.90,29.71,10,4,0,0.00
2013-6-29,104.5,86.3,74.8,81.7,77.3,72.4,98,77,45,29.74,29.61,8,3,0,0.00
2013-6-30,95.7,81.7,70.0,72.7,68.1,62.1,99,68,35,29.75,29.68,9,3,0,0.00
2013-7-1,92.5,78.0,65.8,70.8,66.8,64.2,98,72,41,29.87,29.76,8,3,0,0.00
2013-7-2,98.4,80.1,65.1,70.9,67.2,63.8,99,70,33,29.93,29.85,9,2,0,0.00
2013-7-3,96.8,80.9,65.1,70.1,66.4,63.6,98,67,36,29.97,29.86,9,2,0,0.00
2013-7-4,97.5,79.8,66.0,73.9,68.5,64.6,99,73,36,29.92,29.84,8,2,0,0.00
2013-7-5,100.2,80.0,67.5,75.4,71.0,66.6,98,77,42,29.92,29.85,12,3,0,0.00
2013-7-6,94.8,80.1,68.4,77.3,72.7,68.1,99,80,54,29.91,29.84,9,2,0,0.00
2013-7-7,95.0,79.0,73.9,78.4,75.3,72.8,99,89,59,29.99,29.87,7,2,0,1.10
2013-7-8,94.6,80.1,70.7,79.2,74.6,70.4,99,85,53,30.08,29.97,11,2,0,0.00
2013-7-9,102.4,83.3,72.5,80.4,75.3,72.2,99,80,42,30.11,29.99,8,2,0,0.00
2013-7-10,99.1,84.5,72.9,78.6,75.4,72.6,99,77,46,30.03,29.89,7,3,0,0.00
2013-7-11,98.6,81.3,73.6,79.2,75.6,72.4,99,85,48,29.94,29.85,13,3,0,1.30
2013-7-12,107.8,86.0,72.7,81.7,75.8,72.4,99,76,34,29.89,29.79,7,2,0,0.00
2013-7-13,100.2,82.7,68.9,73.3,68.1,59.4,97,67,29,29.89,29.80,8,2,0,0.00
2013-7-14,96.1,79.1,68.4,77.8,71.4,65.5,98,80,45,29.91,29.83,5,1,0,0.00
2013-7-15,91.0,77.4,70.9,77.4,73.3,68.8,99,88,63,30.03,29.88,12,1,0,1.13
2013-7-16,97.5,80.8,71.4,78.3,74.1,20.4,99,83,12,30.09,29.99,8,2,0,0.00
2013-7-17,101.3,83.2,73.4,79.2,75.2,72.1,99,80,45,30.15,30.05,7,2,0,0.00
2013-7-18,99.3,80.7,70.7,77.5,73.0,70.1,99,81,48,30.08,29.93,12,3,0,0.00
2013-7-19,99.0,79.3,70.0,76.8,72.1,69.4,99,81,48,30.00,29.88,8,2,0,0.00
2013-7-20,97.3,79.3,68.4,76.3,71.7,68.0,99,80,49,29.92,29.82,11,2,0,0.00
2013-7-21,88.7,78.9,70.2,78.1,73.8,69.9,99,85,65,29.95,29.86,13,5,0,0.05
2013-7-22,94.8,82.5,72.5,80.8,76.3,72.1,99,83,59,29.97,29.89,14,5,0,0.00
2013-7-23,96.1,83.8,73.0,80.4,76.0,72.7,99,80,50,29.98,29.84,13,5,0,0.02
2013-7-24,96.6,82.8,74.1,78.5,75.1,72.0,99,80,51,29.94,29.81,12,5,0,0.02
2013-7-25,100.0,84.5,74.5,80.3,75.7,72.6,98,78,44,29.98,29.87,6,2,0,0.26
2013-7-26,97.0,84.0,73.8,80.5,75.8,73.3,99,79,51,29.99,29.85,10,3,0,0.00
2013-7-27,90.3,80.3,74.3,80.3,76.2,73.1,97,88,67,29.88,29.79,13,4,0,1.09
2013-7-28,96.1,81.9,72.3,79.3,75.2,71.7,98,82,55,29.94,29.84,7,2,0,0.00
2013-7-29,103.5,85.5,73.4,80.2,74.4,70.6,99,74,37,30.03,29.93,7,2,0,0.00
2013-7-30,100.4,83.5,70.0,80.4,73.5,69.7,99,76,43,30.08,29.97,8,3,0,0.00
2013-7-31,102.9,83.6,70.5,79.3,74.7,69.9,99,78,42,30.03,29.88,8,2,0,0.01
2013-8-1,104.4,86.0,73.2,79.4,75.9,72.9,99,76,38,29.96,29.83,10,3,0,0.00
2013-8-2,107.4,86.7,73.9,79.4,76.3,71.6,99,76,33,29.92,29.85,8,2,0,0.00
2013-8-4,79.5,69.6,77.5,75.6,56.0,-99.9,93,81,89,29.98,29.96,2,-110,0,0.00
2013-8-5,100.4,85.1,73.6,80.1,75.3,72.6,99,76,42,29.99,29.85,10,4,0,0.00
2013-8-6,101.1,85.3,72.7,80.0,75.4,70.3,99,76,39,29.93,29.81,12,4,0,0.00
2013-8-7,100.4,84.6,73.0,80.5,75.5,71.3,99,78,41,29.91,29.78,10,4,0,0.00
2013-8-8,102.9,85.3,71.1,80.5,73.8,69.2,99,73,36,29.89,29.79,8,3,0,0.00
2013-8-9,107.1,85.6,72.7,79.9,74.7,61.6,97,74,33,29.93,29.81,14,2,0,1.63
2013-8-10,94.5,80.3,74.7,80.5,76.3,73.0,98,88,61,29.99,29.91,8,2,0,0.28
2013-8-11,97.0,81.7,72.7,80.2,75.8,72.4,99,84,51,30.02,29.95,11,3,0,0.05
2013-8-12,93.4,81.5,72.9,80.8,76.0,72.6,99,85,65,30.03,29.92,9,2,0,0.00
2013-8-13,100.9,85.1,75.0,81.4,75.5,71.9,99,77,43,29.97,29.81,13,4,0,0.00
2013-8-14,90.5,79.3,73.8,80.3,74.7,71.9,96,86,60,29.92,29.86,18,3,0,0.00
2013-8-15,96.4,78.6,69.8,74.8,70.7,66.3,97,79,47,29.95,29.84,8,3,0,0.00
2013-8-16,96.4,80.9,67.1,72.5,67.9,63.9,98,69,35,29.93,29.85,10,4,0,0.00
2013-8-17,95.7,79.8,66.0,72.8,66.8,64.1,94,69,36,29.92,29.84,13,5,0,0.00
2013-8-18,99.3,81.2,69.3,74.1,69.0,66.0,98,72,37,29.96,29.88,10,3,0,0.00
2013-8-19,99.0,78.7,65.5,75.1,69.5,64.9,99,77,41,29.99,29.89,6,2,0,0.00
2013-8-20,95.7,74.6,67.6,77.1,71.5,66.5,98,91,53,30.01,29.90,9,1,0,0.61
2013-8-21,96.6,79.9,69.6,80.7,73.8,69.3,99,84,51,30.03,29.95,8,2,0,0.21
2013-8-22,102.2,85.0,71.2,80.2,74.3,70.9,99,74,43,30.02,29.88,9,2,0,0.01
2013-8-23,100.4,84.8,71.6,78.0,73.9,71.0,99,74,43,29.94,29.82,8,2,0,0.00
2013-8-24,97.3,82.6,71.2,77.3,73.3,70.6,99,77,49,30.00,29.90,8,3,0,0.00
2013-8-25,92.5,79.3,72.1,77.8,74.0,70.8,96,85,59,30.07,29.98,9,2,0,0.55
2013-8-26,91.0,78.3,72.3,77.9,73.8,71.3,98,87,62,30.10,30.02,9,2,0,0.00
2013-8-27,99.1,81.7,71.2,77.5,72.2,67.5,99,77,39,30.07,29.95,5,1,0,0.00
2013-8-28,103.1,82.2,68.5,76.2,71.4,67.7,99,74,36,30.02,29.91,8,2,0,0.00
2013-8-29,99.9,83.0,69.8,78.0,72.6,69.2,99,75,41,30.00,29.89,5,2,0,0.00
2013-8-30,101.5,82.4,67.8,77.1,70.7,66.9,99,72,38,29.97,29.83,6,1,0,0.00
2013-8-31,97.9,82.3,68.0,78.3,71.7,67.4,99,75,41,29.91,29.77,8,2,0,0.00
2013-9-1,101.1,82.4,70.9,79.2,72.6,69.7,99,77,41,29.87,29.75,9,3,0,0.00
2013-9-2,106.3,84.0,69.8,79.1,73.1,66.4,99,75,28,29.91,29.77,11,4,0,0.00
2013-9-3,99.0,80.3,73.4,79.3,75.2,72.5,98,87,44,29.91,29.82,10,2,0,0.62
2013-9-4,102.6,82.6,70.2,79.4,74.5,69.9,99,80,42,29.98,29.87,12,2,0,0.00
2013-9-5,100.2,83.1,71.8,78.8,74.1,71.2,98,77,44,30.03,29.92,9,2,0,0.00
2013-9-6,98.1,81.1,71.8,79.4,73.5,70.9,98,81,43,30.03,29.89,7,2,0,0.09
2013-9-7,102.7,81.3,71.1,79.3,73.2,70.7,99,80,39,29.98,29.86,10,2,0,0.31
2013-9-8,95.9,81.2,66.4,77.4,70.4,66.1,99,74,41,29.94,29.83,10,2,0,0.16
2013-9-9,95.9,80.3,66.7,76.8,69.6,65.6,99,74,39,29.96,29.87,11,3,0,0.18
2013-9-10,96.4,80.6,68.4,76.8,71.5,67.7,99,77,45,30.03,29.93,10,3,0,0.00
2013-9-11,96.8,81.5,69.8,78.2,71.0,65.9,99,75,39,30.04,29.92,11,3,0,0.00
2013-9-12,100.0,82.3,67.1,75.4,67.3,59.4,99,67,27,29.98,29.83,9,2,0,0.00
2013-9-13,99.9,82.5,67.8,74.1,69.3,65.7,96,70,36,29.87,29.71,9,2,0,0.00
2013-9-14,97.9,85.9,72.9,73.8,70.9,67.4,98,63,42,29.90,29.79,9,4,0,0.00
2013-9-15,97.7,79.5,68.0,73.4,69.2,65.6,92,74,39,29.96,29.87,10,2,0,0.00
2013-9-16,98.6,81.7,68.2,77.6,70.5,66.5,99,73,38,29.99,29.90,11,3,0,0.00
2013-9-17,98.8,83.1,67.1,77.0,70.7,66.5,99,71,38,30.01,29.86,12,3,0,0.00
2013-9-18,98.1,82.0,69.8,78.6,72.7,68.9,98,77,42,29.96,29.84,10,4,0,0.00
2013-9-19,96.3,80.1,72.1,79.0,71.7,-99.9,99,80,50,29.94,29.82,12,-8,0,0.64
2013-9-20,86.5,76.8,74.1,81.7,74.0,-99.9,99,95,82,29.91,29.80,10,-12,0,0.00
2013-9-21,75.6,73.2,70.5,73.8,71.7,69.6,99,95,89,29.88,29.82,6,3,0,0.00
2013-9-22,85.1,73.1,64.9,69.3,61.6,56.5,96,70,38,29.94,29.85,9,3,0,0.00
2013-9-23,77.7,67.2,62.1,75.3,63.4,59.8,94,88,80,29.92,29.90,2,0,0,0.00
2013-9-24,93.0,81.0,69.8,79.9,75.3,69.2,99,84,59,29.94,29.87,8,2,0,0.00
2013-9-25,94.3,76.9,63.7,74.3,64.3,54.8,99,72,29,29.96,29.87,7,2,0,0.00
2013-9-26,94.6,76.0,59.2,69.4,64.2,58.9,99,72,35,30.04,29.92,5,1,0,0.00
2013-9-27,93.7,75.7,62.8,71.4,62.7,-99.9,99,72,43,30.09,29.92,8,-20,0,0.00
2013-9-28,87.8,75.3,66.6,76.2,71.1,65.9,99,88,65,29.99,29.89,8,3,0,0.02
2013-9-29,82.2,74.5,70.7,75.6,72.5,70.4,99,94,77,29.95,29.86,5,2,0,0.13
2013-9-30,79.0,74.3,71.1,76.6,73.0,70.8,99,96,88,29.89,29.80,6,2,0,0.01
2013-10-1,87.8,76.3,70.9,76.4,73.0,70.6,99,90,64,29.96,29.87,10,4,0,0.02
2013-10-2,90.9,77.3,69.3,76.6,72.0,69.0,99,86,56,29.99,29.88,8,3,0,0.00
2013-10-3,89.1,78.0,69.6,77.6,72.6,69.3,99,85,57,29.96,29.86,8,3,0,0.00
2013-10-4,91.0,78.9,71.6,79.3,74.8,71.3,99,88,60,29.95,29.88,11,4,0,0.12
2013-10-5,87.6,77.6,71.2,77.2,74.4,70.9,99,91,70,29.93,29.84,11,4,0,0.07
2013-10-6,76.6,68.1,54.1,73.8,59.6,48.9,99,78,43,29.99,29.84,14,5,0,0.04
2013-10-7,78.4,63.9,52.2,56.4,53.5,51.0,99,73,44,30.06,29.96,9,3,0,0.00
2013-10-8,78.4,63.2,50.2,59.4,55.5,49.9,99,79,48,30.05,29.95,7,2,0,0.00
2013-10-9,82.6,65.1,48.4,61.0,55.6,48.1,99,77,39,30.05,29.96,6,2,0,0.00
2013-10-10,82.4,66.8,51.6,66.3,60.1,51.3,99,82,51,30.05,29.93,8,2,0,0.00
2013-10-11,87.8,71.0,56.1,72.5,66.1,55.8,99,86,57,29.97,29.87,10,2,0,0.00
2013-10-12,90.7,76.2,66.9,77.9,72.0,66.6,99,89,55,30.06,29.89,9,3,0,0.98
2013-10-13,84.7,74.9,68.2,74.8,71.2,67.9,99,89,68,30.11,29.96,10,3,0,0.00
2013-10-14,85.6,75.5,68.5,72.9,70.5,68.2,99,86,58,30.05,29.92,8,3,0,0.00
2013-10-15,88.0,75.1,65.7,74.1,69.6,65.4,99,85,53,29.96,29.84,11,2,0,0.00
2013-10-16,86.5,74.7,66.0,74.9,70.3,65.7,99,88,63,29.90,29.81,10,2,0,0.00
2013-10-17,70.9,65.3,54.7,69.4,63.2,54.4,99,93,75,29.99,29.88,7,3,0,0.00
2013-10-18,72.0,61.0,50.9,62.7,57.4,50.6,99,89,64,30.05,29.90,11,2,0,0.05
2013-10-19,67.8,60.7,50.9,63.7,58.2,50.6,99,92,77,30.07,29.92,10,4,0,0.90
2013-10-20,73.4,57.5,45.3,56.5,50.3,45.1,99,81,43,30.10,29.97,9,2,0,0.00
2013-10-21,70.7,60.7,50.5,65.4,58.7,50.3,99,94,75,30.05,29.94,8,2,0,0.00
2013-10-22,70.2,62.1,50.7,66.4,59.8,50.4,99,93,70,30.06,29.96,10,3,0,0.00
2013-10-23,77.9,60.5,45.7,58.3,53.1,45.4,99,81,43,30.14,30.03,7,2,0,0.00
2013-10-24,82.8,63.3,46.6,62.5,55.7,46.3,99,81,44,30.22,30.11,7,2,0,0.00
2013-10-25,70.3,58.9,47.8,57.6,49.3,44.9,99,73,45,30.40,30.22,9,2,0,0.00
2013-10-26,78.1,58.5,43.0,57.5,49.7,42.7,99,77,39,30.29,30.12,7,2,0,0.00
2013-10-27,77.0,62.5,50.0,68.7,60.6,49.7,99,94,72,30.12,30.00,12,2,0,0.36
2013-10-28,81.3,69.1,59.4,70.9,65.6,59.1,99,90,63,30.15,30.03,6,1,0,0.01
2013-10-29,83.7,70.4,61.2,70.1,65.6,60.9,99,87,56,30.18,30.10,10,3,0,0.00
2013-10-30,81.3,71.4,64.0,73.2,68.5,63.8,99,91,73,30.13,29.92,15,6,0,0.00
2013-10-31,76.6,69.1,62.2,74.3,65.2,-99.9,99,93,88,29.92,29.78,19,-16,0,2.08
2013-11-1,66.9,60.9,57.2,63.9,60.3,56.9,99,98,85,29.94,29.87,7,2,0,0.00
2013-11-4,76.6,64.8,49.3,60.5,53.5,-99.9,98,73,54,30.19,30.09,13,-22,0,0.00
2013-11-5,79.7,68.6,58.5,68.9,64.5,58.2,99,88,69,30.14,30.05,13,7,0,0.00
2013-11-6,79.3,69.4,57.0,73.4,67.8,56.7,99,95,81,30.18,30.03,11,4,0,1.22
2013-11-7,63.9,54.7,47.8,56.6,46.6,41.4,99,76,45,30.36,30.19,11,5,0,0.00
2013-11-8,66.2,55.8,45.0,46.5,43.7,40.2,99,68,39,30.37,30.20,17,3,0,0.00
2013-11-9,69.3,56.0,43.5,51.7,47.9,43.3,99,77,45,30.26,30.17,5,2,0,0.00
2013-11-10,74.3,60.0,48.9,58.4,52.6,47.3,97,78,55,30.29,30.20,6,2,0,0.00
2013-11-11,74.5,58.5,46.6,57.2,51.9,46.3,99,82,47,30.27,30.15,5,1,0,0.00
2013-11-12,71.2,53.2,38.5,56.9,46.5,30.6,99,79,59,30.57,30.21,9,4,0,0.00
2013-11-13,55.9,42.3,31.5,31.8,29.1,25.1,84,62,32,30.60,30.43,7,4,0,0.19
2013-11-14,60.8,48.8,28.6,48.6,40.9,28.0,99,76,52,30.37,30.13,5,1,0,0.00
2013-11-15,72.3,60.1,51.4,63.2,58.6,50.3,99,95,73,30.07,29.95,4,1,0,0.00
2013-11-16,78.4,70.7,61.9,71.7,68.1,61.6,99,92,77,30.00,29.87,11,5,0,0.08
2013-11-17,81.9,75.0,71.1,77.9,73.6,69.9,99,96,84,29.95,29.83,13,6,0,0.08
2013-11-18,74.3,67.9,55.9,74.0,55.2,40.5,99,66,41,30.14,29.95,6,3,0,0.35
2013-11-19,66.9,55.3,41.9,43.8,40.2,34.9,82,59,32,30.19,30.06,14,3,0,0.00
2013-11-20,71.8,54.1,38.7,51.6,43.6,35.2,93,71,37,30.11,29.99,8,2,0,0.00
2013-11-21,77.0,66.3,52.5,71.3,64.5,51.7,99,94,80,30.15,30.05,9,4,0,0.00
2013-11-22,71.6,67.6,64.6,69.7,66.8,64.0,99,97,88,30.23,30.11,8,3,0,0.16
2013-11-23,63.5,50.6,43.3,63.2,49.2,38.8,99,95,84,30.40,30.20,8,5,0,0.01
2013-11-24,51.1,42.5,37.0,38.6,31.5,27.4,85,66,44,30.45,30.31,9,5,0,0.00
2013-11-25,40.3,34.7,-40.0,39.8,32.2,-40.2,99,91,73,30.33,29.99,10,4,0,2.08
2013-11-28,49.1,37.2,27.9,35.8,25.6,-99.9,99,73,46,30.51,29.92,6,-38,0,0.00
2013-11-29,59.9,40.0,25.0,38.9,32.0,24.7,99,78,37,30.54,30.42,8,2,0,0.00
2013-11-30,65.5,45.0,28.2,45.8,35.2,28.0,99,75,26,30.45,30.25,6,1,0,0.00
2013-12-1,70.9,55.2,34.9,56.1,47.5,34.3,99,79,45,30.27,29.98,8,2,0,0.00
2013-12-2,77.0,65.4,57.0,65.1,61.5,56.0,99,88,62,29.99,29.71,12,6,0,0.00
2013-12-3,77.9,69.2,63.9,69.1,66.6,63.6,99,92,69,29.76,29.66,15,8,0,0.00
2013-12-4,79.2,72.6,68.4,72.5,70.6,68.1,99,94,77,29.87,29.76,14,7,0,0.00
2013-12-5,80.6,71.0,53.6,73.1,68.7,53.3,99,93,78,29.98,29.85,13,6,0,0.56
2013-12-6,53.4,43.1,37.2,53.1,42.6,36.2,99,98,94,30.31,29.95,11,5,0,0.06
2013-12-7,37.2,34.6,32.7,36.7,33.2,31.9,99,95,88,30.39,30.26,9,5,0,0.00
2013-12-8,42.6,37.6,32.7,42.4,37.4,32.5,99,99,99,30.27,30.06,6,3,0,1.24
2013-12-9,44.6,42.2,37.9,44.3,41.9,37.7,99,99,98,30.23,30.07,10,4,0,0.23
2013-12-10,48.7,39.4,32.7,38.3,35.6,32.5,99,87,63,30.42,30.24,13,4,0,0.01
2013-12-11,47.5,40.4,30.9,43.0,37.1,30.7,99,89,76,30.48,30.36,7,2,0,0.12
2013-12-12,53.6,40.8,31.6,37.3,34.0,29.8,98,79,49,30.56,30.37,7,3,0,0.00
2013-12-13,59.7,47.1,32.0,59.4,42.4,30.1,99,84,69,30.36,29.87,10,4,0,0.20
2013-12-14,65.8,56.9,44.4,63.8,54.0,39.3,99,90,72,30.20,29.83,17,6,0,0.54
2013-12-15,54.1,42.7,31.6,40.0,36.8,31.4,99,81,57,30.33,30.20,13,4,0,0.00
2013-12-16,60.4,42.5,28.2,44.1,36.5,28.0,99,83,42,30.36,30.24,7,1,0,0.00
2013-12-17,67.8,45.7,29.3,48.7,39.5,29.1,99,83,41,30.35,30.24,7,1,0,0.00
2013-12-18,67.8,49.4,36.0,53.0,42.7,35.7,99,81,43,30.36,30.18,7,2,0,0.00
2013-12-19,73.2,61.2,44.8,63.2,56.4,44.5,99,86,62,30.18,29.97,18,6,0,0.00
2013-12-20,76.6,70.3,65.1,70.9,67.8,63.4,98,92,82,30.00,29.86,18,9,0,0.00
2013-12-21,74.5,69.2,58.3,72.0,67.7,57.8,99,95,91,29.86,29.61,19,10,0,0.69
2013-12-22,66.4,57.0,40.6,63.2,54.7,37.1,99,92,78,30.27,29.82,12,4,0,0.04
2013-12-23,49.8,40.4,32.4,38.0,34.5,31.1,95,80,55,30.53,30.27,12,5,0,0.00
2013-12-24,53.4,37.9,25.5,37.5,32.5,25.3,99,83,50,30.58,30.35,9,2,0,0.00
2013-12-25,54.1,39.5,28.4,38.1,34.0,28.2,99,83,51,30.42,30.31,7,2,0,0.00
2013-12-26,60.1,45.4,32.5,41.4,37.3,29.2,99,77,35,30.42,30.29,12,2,0,0.00
2013-12-27,52.3,46.0,41.2,41.8,39.2,37.2,91,78,59,30.45,30.31,4,2,0,0.00
2013-12-28,50.7,45.3,37.9,47.0,42.3,37.2,99,89,73,30.31,30.02,5,2,0,0.08
2013-12-29,63.0,45.8,30.2,47.9,39.8,30.0,99,83,40,30.14,30.02,4,1,0,0.00
2013-12-30,51.1,46.3,41.9,45.3,43.7,40.2,99,91,80,30.37,30.12,8,3,0,0.00
2013-12-31,49.6,42.9,38.1,40.3,38.5,36.5,96,85,63,30.44,30.30,6,2,0,0.00
2014-1-1,61.5,50.6,41.9,53.9,48.1,39.9,99,92,74,30.29,30.02,8,2,0,0.07
2014-1-2,55.8,47.9,34.0,55.5,39.7,27.2,99,75,48,30.41,30.01,15,6,0,0.11